Погода Мыс Ванкерем

Погода Мыс Ванкерем : погода сейчас, прогноз погоды и архив. Всё, что Вы хотите узнать о погоде Мыс Ванкерем!

Поиск расширенной информации на нашем сайте:

Другие новости

Новости СМИ2

Главная страница сайта

Новости сайта

03.07.2017

Напоминаем, что на нашем специализированном сайте Метеоцентр.Азия вы можете получить высокодетализированные автоматические прогнозы погоды по пунктам России, СНГ и мира в авиационном формате (включающие направление и скорость ветра, видимость, явления погоды, количество и форму облачности, нижнюю и верхнюю границу облачности).

Рекомендуем: Роллеты на окна заказать оконные рольставни spacy.ru.

Погода Мыс Ванкерем - сегодня

Время (UTC), дата Ветер
(°,м/с) 
Видим.   Явления Облачность Т
(°С)
Тd
(°С)
f(%) Тe
(°С)
Pmin
(гПа)
dP
(гПа)
Po
(мм)
O2
(г/м3)
Тmin Tmax R s Состояние
почвы
21 07.07.17 170 (Ю) 6{08}  20000 м    9/6 600 м средняя 
[Sc|Ac lent]
+9.4 +4 69 +8  1003.6  -0.5  752  292           
00 08.07.17 180 (Ю) 6{07}  20000 м    10/10 1000 м 
[Cu hum]
+18.7 +8.9 53 +19  1003.8  -0.4  752  282           
03 08.07.17 340 (С) 6{08}  20000 м    10/5 600 м средняя, верхняя 
[Cu hum|Ac und|Ci fib]
+3.7 +0.5 80 +1  1005.1  1.3  753  299           
06 08.07.17 320 (СЗ) 6{09}  10 км    10/10 600 м 
[Sc]
+2.8 +0.1 82 1008.5  3.3  756  301    +19.5       
09 08.07.17 310 (СЗ) 9{12}  10 км    10/10 600 м 
[Sc]
+2 -0.8 82 -2  1009.9  1.5  757  303           
12 08.07.17 310 (СЗ) 9{12}  10 км    10/10 600 м 
[Sc]
+1.4 -1.1 83 -3  1011.7  1.8  758  304           
15 08.07.17 310 (СЗ) 8{11}  10 км    10/10 600 м 
[Sc]
+1 -1.6 83 -3  1013.1  1.4  759  305           
18 08.07.17 320 (СЗ) 9{11}  10 км    10/10 600 м 
[Sc]
+1.2 -1.4 83 -3  1015  1.9  761  305  +0.5        сухая 
21 08.07.17 340 (С) 4{10}  0200 м  туман  ?/?  
+1.5 +1.5 100 -1  1015  761  305           
00 09.07.17 350 (С) 4{07}  0200 м  туман{дождь}  ?/?  
+2 +2 100 1014.9  -0.1  761  304           
03 09.07.17 350 (С) 2{05}  0200 м  туман{дождь}  ?/?  
+2.4 +2.4 100 +2  1015.5  0.6  761  304           
06 09.07.17 340 (С) 2{04}  0200 м  туман{дождь}  ?/?  
+2 +2 100 +1  1015.8  0.3  761  304    +3  0.4     
09 09.07.17 340 (С) 3{05}  0200 м  туман{дождь}  ?/?  
+1.7 +1.7 100 1015.9  0.1  761  305           
12 09.07.17 340 (С) 3{05}  0200 м  туман{дождь}  ?/?  
+1.5 +1.5 100 1016.4  0.5  762  305           
15 09.07.17 330 (СЗ) 3{05}  0200 м  туман{дождь}  ?/?  
+1.9 +1.9 100 1016.7  0.3  762  305           
18 09.07.17 330 (СЗ) 3{05}  0200 м  туман{дождь}  ?/?  
+2.1 +2.1 100 +1  1017.3  0.6  763  305  +1.5    0.3    влажная 
21 09.07.17 330 (СЗ) 4{06}  20000 м  в посл. час туман  10/8 600 м средняя 
[Sc|Ac und]
+2.4 +0.5 87 1017.6  0.3  763  305           
00 10.07.17 340 (С) 3{06}  20000 м  {туман}  10/10 200 м 
[Sc]
+3.7 +0.8 81 +2  1018.1  0.5  763  303           
03 10.07.17 360 (С) 4{06}  20000 м    10/6 600 м средняя, верхняя 
[Sc|Ac trans|Ci fib]
+4.1 +0.7 78 +2  1017.9  -0.2  763  303           
06 10.07.17 050 (СВ) 3{05}  20000 м    9/8 600 м средняя 
[Sc|Ac trans]
+3.7 +0.7 81 +2  1018.4  0.5  763  303    +4.5       
09 10.07.17 080 (В) 1{04}  20000 м    9/8 600 м средняя 
[Sc|Ac trans]
+4.5 +1.2 79 +5  1019.3  0.9  764  303           
12 10.07.17 090 (В) 1{03}  20000 м    9/8 600 м средняя 
[Sc|Ac trans]
+4.9 +1.6 79 +6  1020  0.7  765  302           
15 10.07.17 080 (В) 1{03}  20000 м    9/8 600 м средняя 
[Sc|Ac trans]
+4.3 +1.2 80 +5  1020.6  0.6  765  303           
18 10.07.17 050 (СВ) 1{03}  20000 м    9/6 600 м средняя 
[Sc|Ac trans]
+4.9 +1.2 77 +6  1021.2  0.6  765  303  +3        сухая 
21 10.07.17 360 (С) 3{05}  20000 м    10/0 средняя 
[Ac und]
+4 +0.6 78 +3  1022.2  766  304           
Время (UTC), дата Ветер
(°,м/с) 
Видим.   Явления Облачность Т
(°С)
Тd
(°С)
f(%) Тe
(°С)
Pmin
(гПа)
dP
(гПа)
Po
(мм)
O2
(г/м3)
Тmin Tmax R s Состояние
почвы

Для получения пояснительной информации подведите курсор к названию столбца.

ПОГОДА Мыс Ванкерем - архив

Всё, что Вы хотите узнать о погоде Мыс Ванкерем - удобно и подробно!

Выберите нужную дату (начиная с 1 января 2015* года) и нажмите кнопку "Найти".
Будут отображены архивные сводки погоды по пункту Мыс Ванкерем, начиная с указанной даты.


Отображать данные в формате CSV (для использования в таблицах Excel)


Внимание! Наш архив погоды предназначен исключительно для личного некоммерческого использования в познавательных целях. Если Вам необходимы официальные справки о состоянии погоды (для производственных, юридических, коммерческих и т.п. целей), обращайтесь в органы Росгидромета.

*Примечание: данная дата относится к архиву по метеостанциям СССР (Россия, СНГ, Балтия).
Архив по метеостанциям Зарубежной Европы и Азии (кроме Китая) хранится 10 дней, по другим регионам земного шара (Китай, Африка, Америка, Австралия, Океания) - 1 день.

Мыс Ванкерем - район местоположения метеостанции


Название, широта, долгота, высота метеостанции:
Мыс Ванкерем 67.83°ш. -175.8°д. 5 м над ур. моря [Российская Федерация]

Дополнительная информация

В oтличие oт бoльшинства пoгoдных сайтoв мы публикуем пoдрoбную метеoинфoрмацию в детальнoм прoфессиoнальнoм фoрмате.

Характеристики температуры и влажнoсти вoздуха измеряются на высoте 2 м в тени вдали oт зданий и деревьев.
Скoрoсть ветра измеряется на высoте 10 м (на урoвне рoста челoвека скoрoсть ветра ниже в 1.5-2 раза). Если метеoстанция нахoдится в гoрoде или в лесу, тo скoрoсть ветра занижена на 2-4 м/с пo сравнению с oткрытым местoм. Скoрoсть ветра над акватoриями крупных рек и oзёр, а также на вершинах хoлмoв на 2-5 м/с выше, чем в oбычных услoвиях.
Атмoсфернoе давление в разных тoчках местнoсти мoжет значительнo oтличаться oт давления на метеoстанции, в зависимoсти oт услoвий рельефа (при пoдъёме на 10 м давление пoнижается примернo на 1 мм рт.ст.).